sat.trackr.live / text

‹ back to catalog

SHIYAN-3 (SY-3)

NORAD 33433 · 2008-056A

PAYLOAD ACTIVE UNKNOWN

§ Identity

Operator
Country
PRC
Launch date
2008-11-05
Launch site
JSC
Launch vehicle
Mass (kg)
RCS (m²)
0.77

External: N2YO · Heavens-Above · Gunter

§ Orbital elements

Epoch: 2026-09-19T21:13:33.860352Z

Period
100.64 min
Inclination
98.6029°
Eccentricity
0.0012991
Mean motion
14.30827238 rev/d
Perigee alt
779.7 km
Apogee alt
798.3 km
Semi-major
7,167.1 km
B*
4.1782e-5
RAAN
288.4846°
Arg perigee
211.6520°
Mean anomaly
148.3883°
Rev number
93,234

§ Raw data

SHIYAN-3 (SY-3)1 33433U 08056A   26262.88441968  .00000066  00000+0  41782-4 0  99982 33433  98.6029 288.4846 0012991 211.6520 148.3883 14.30827238932345

JSON: /api/v1/satellites/33433 · /tle

For live sub-satellite position, see the globe view (requires WebGL).

§ Visibility from observer

Set your observer location to see the next 7 days of passes ≥ 10°. The values pass through the URL so the page stays shareable.

No JS? Fill the form by hand. The geolocation button needs JavaScript.

§ Radio — SatNOGS DB

ModeDescriptionDownlinkUplink
FM S-band telemetry 2.231 GHz

1 transmitter · refreshed weekly from db.satnogs.org